Home   Weather   Bielsko-Biała   Past weeks

Flag for Poland Past Weather in Bielsko-Biała, Poland — Yesterday and Last 2 Weeks

Now
39 °F

Overcast.


Feels Like: 36 °F
Forecast: 33 / 49 °F
Wind: 3 mph from West

Location: Katowice

Current Time: Apr 23, 2017 at 7:48:07 am

Latest Report: Apr 23, 2017 at 6:00 am


Visibility: 19 mi

Pressure: 29.99 "Hg

Humidity: 77%

Dew Point: 32 °F

Location of Bielsko-BiałaLocation

Past Weather in Bielsko-Biała — Graph

°F

Bielsko-Biała Temperature Yesterday

Maximum temperature yesterday: 49 °F (at 2:00 pm)
Minimum temperature yesterday: 37 °F (at 11:00 pm)
Average temperature yesterday: 45 °F

High & Low Weather Summary for the Past Weeks

 TemperatureHumidityPressure
High67 °F (Apr 10, 4:00 pm)98% (Apr 10, 7:00 am)30.47 "Hg (Apr 10, 7:00 am)
Low26 °F (Apr 21, 4:00 am)38% (Apr 10, 4:00 pm)29.74 "Hg (Apr 13, 6:00 am)
Average44 °F71%30.07 "Hg
* Reported Apr 8 6:00 am — Apr 23 6:00 am, Bielsko-Biała, Weather by CustomWeather, © 2017

Note: Actual official high and low records may vary slightly from our data, if they occured in-between our weather recording intervals... More about our weather records

Advertising

Bielsko-Biała Weather History for the Previous 24 Hours

Scroll right to see more
 ConditionsComfort  
Time TempWeatherWind HumidityBarometerVisibility
6:00 am
Sun, Apr 23
39 °FOvercast.3 mph77%29.99 "Hg19 mi
5:00 am38 °FOvercast.2 mph82%29.98 "Hg12 mi
4:00 am37 °FOvercast.2 mph82%29.98 "Hg12 mi
3:00 am37 °FPassing clouds.2 mph79%29.98 "Hg12 mi
2:00 am34 °FPassing clouds.2 mph83%30.00 "Hg6 mi
1:00 am37 °FPassing clouds.2 mph78%30.00 "Hg9 mi
12:00 am37 °FOvercast.2 mph77%30.00 "Hg9 mi
11:00 pm
Sat, Apr 22
37 °FPassing clouds.2 mph74%30.01 "Hg9 mi
10:00 pm41 °FPassing clouds.2 mph63%29.99 "Hg12 mi
9:00 pm42 °FPassing clouds.2 mph59%29.99 "Hg19 mi
8:00 pm42 °FOvercast.1 mph63%29.98 "Hg12 mi
7:00 pm46 °FPartly sunny.3 mph49%29.96 "Hg19 mi
6:00 pm47 °FPartly sunny.5 mph45%29.96 "Hg19 mi
5:00 pm49 °FPartly sunny.2 mph42%29.95 "Hg19 mi
4:00 pm49 °FPartly sunny.3 mph41%29.96 "Hg19 mi
3:00 pm49 °FPartly sunny.3 mph44%29.96 "Hg19 mi
2:00 pm49 °FPartly sunny.5 mph42%29.97 "Hg19 mi
1:00 pm49 °FPartly sunny.5 mph46%29.99 "Hg19 mi
12:00 pm48 °FOvercast.6 mph57%29.99 "Hg19 mi
11:00 am43 °FOvercast.5 mph78%30.02 "Hg12 mi
10:00 am41 °FLight rain. Overcast.2 mph82%30.02 "Hg19 mi
9:00 am42 °FSprinkles. Overcast.2 mph76%30.01 "Hg9 mi
8:00 am44 °FLight rain. Overcast.6 mph88%29.99 "Hg4 mi
7:00 am44 °FSprinkles. Overcast.6 mph86%29.98 "Hg4 mi
Weather by CustomWeather, © 2017

See weather overviewHow to use our weather pages